Terug naar catalogus

STARLINK-36973

ActiefCommunicatieVLEO
NORAD 68078·PAYLOAD·🇺🇸 United States

Gelanceerd Mar 4, 2026 vanaf Vandenberg Space Force Base

Loading…

Volgende Passages (komende 24 uur)

TLE

VersSource: CelesTrak SupGP

Epoch: Sep 14, 2026, 22:58 UTC

1 68078C 26042K   26257.95743056 -.00013228  00000+0 -39098-3 0  2570
2 68078  53.1603  15.4786 0001236  85.7551 172.7938 15.34383854    15

Volg STARLINK-36973 in realtime met AllMySat

Download on the App Store